Regional Weather Roundup
Issued by NWS Huntsville, AL

Home | Current Version | Previous Version | Text Only | Print | Product List | Glossary On
Versions: 1 2 3 4 5 6 7 8 9 10 11 12 13 14 15 16 17 18 19 20 21 22 23 24 25 26 27 28 29 30 31 32 33 34 35 36 37 38 39 40 41 42 43 44 45 46 47 48 49 50
000
ASUS44 KHUN 220724
RWRHUN

WEATHER ROUNDUP FOR THE TENNESSEE VALLEY
NATIONAL WEATHER SERVICE HUNTSVILLE AL
200 AM CDT TUE JUL 22 2014

ALZ001>004-220800-
NORTHWEST ALABAMA

CITY           SKY/WX    TMP DP  RH WIND       PRES   REMARKS
COURTLAND HCN    N/A     72 N/A N/A CALM        N/A
RUSSELLVILLE     N/A     70 N/A N/A MISG        N/A
SHOALS AIRPORT PTCLDY    72  70  94 CALM      30.06F FOG
SHOALS TVA RES   N/A     72 N/A N/A MISG        N/A
$$

ALZ005>007-016-220800-
NORTH CENTRAL ALABAMA

CITY           SKY/WX    TMP DP  RH WIND       PRES   REMARKS
CULLMAN AG STN   N/A     73 N/A N/A CALM        N/A
DECATUR AP     CLOUDY    73  72  94 CALM      30.07S
HUNTSVILLE AP  CLOUDY    76  72  87 E7        30.07R
HUN NWS/UAH      N/A     76  70  83 SE3         N/A
MERIDIANVILLE  MOCLDY    72  68  88 CALM      30.07F
VINEMONT AP      N/A     73  71  94 SE3       30.09S
$$

ALZ008>010-220800-
NORTHEAST ALABAMA

CITY           SKY/WX    TMP DP  RH WIND       PRES   REMARKS
ALBERTVILLE    CLOUDY    72  72 100 CALM      30.08S
CROSSVILLE       N/A     72 N/A N/A CALM        N/A
FORT PAYNE     CLOUDY    72  68  88 CALM      30.08S
SCOTTSBORO AP  CLOUDY    73  73 100 CALM      30.08S FOG
SCOTTSBORO HCN   N/A     72 N/A N/A MISG        N/A
VALLEY HEAD      N/A     73 N/A N/A MISG        N/A
$$

TNZ076-096-097-220800-
SOUTHEASTERN MIDDLE TENNESSEE

CITY           SKY/WX    TMP DP  RH WIND       PRES   REMARKS
FAYETTEVILLE   PTCLDY    72  70  94 E9        30.08S
TULLAHOMA      CLEAR     72  70  94 CALM      30.10S
WINCHESTER     CLEAR     70  70 100 E3        30.09F
$$

...SURROUNDING SITES...

CITY           SKY/WX    TMP DP  RH WIND       PRES   REMARKS
ATLANTA        CLOUDY    72  69  90 E7        30.10F
ANNISTON       CLOUDY    74  72  93 NE5       30.06F
BIRMINGHAM     MOCLDY    75  70  84 E5        30.07F
CHATTANOOGA    MOCLDY    74  70  87 CALM      30.09F
CORINTH        FOG       68  68 100 W3        30.05S VSB 1
DALTON         CLOUDY    70  70 100 CALM      30.08F
GADSDEN        CLOUDY    73  70  88 CALM      30.06S
GOLDEN TRNGL   MOCLDY    72  66  83 N5        30.04S
HALEYVILLE     FAIR      70  70 100 CALM      30.09F FOG
JACKSON TN     CLEAR     67  65  93 CALM      30.06S FOG
LEWISBURG      FAIR      69  67  93 CALM      30.07S
MEMPHIS        CLEAR     75  65  70 CALM      30.07R
MURFREESBORO   FAIR      73  70  91 CALM      30.07S
NASHVILLE      PTCLDY    74  71  91 CALM      30.07S
OXFORD MS      FAIR      68  66  94 CALM      30.07F FOG
ROME           CLOUDY    72  71  97 CALM      30.07F
SAVANNAH       CLEAR     68  68 100 CALM      30.06S
TUPELO         CLEAR     73  69  87 CALM      30.04F
TUSCALOOSA     MOCLDY    76  72  87 CALM      30.03F
$$

...GULF COAST WEATHER...

CITY           SKY/WX    TMP DP  RH WIND       PRES   REMARKS
GULFPORT       CLEAR     76  71  85 N3        29.99F
PASCAGOULA     PTCLDY    74  73  97 CALM      29.98F
MOBILE         CLOUDY    76  75  97 CALM      29.99F
GULF SHORES    CLOUDY    79  76  90 S5        29.98S
PENSACOLA      MOCLDY    76  75  97 CALM      29.98F
DESTIN         PTCLDY    80  76  87 CALM      30.00F
PANAMA CITY    CLEAR     74  71  88 SE5       30.02F
APPALACHICOLA  CLEAR     74  70  87 E5        30.02F
$$




USA.gov is the U.S. government's official web portal to all federal, state and local government web resources and services.